METEOSAT-11 (MSG-4)

Last updated on Aug. 7, 2020, 5:35 a.m. UTC

1 40732U 15034A   20219.81178959 -.00000013  00000-0  00000-0 0  9996
2 40732   0.7228 272.3544 0003365 226.6953 109.1457  1.00275276 18572
UTC
Height (km)
Latitude
Longitude
Inclination
Orbital Period
UTC large
Height (km)
Speed (km/s)
/
Latitude / Longitude
Inclination (degrees)
Orbital Period (minutes)
Azimuth
Elevation
Range (km)
Doppler Factor
iOS Compass Heading
iOS Angle

Next 30 passes for location: Hong Kong

Rise time Rise Azimuth (degrees) Set time Set Azimuth (degrees) Duration Max altitude (degrees)

No matching passes for this satellites